Regional Weather Roundup
Issued by NWS

Home | Current Version | Previous Version | Text Only | Print | Product List | Glossary Off
Versions: 1 2 3 4 5 6 7 8 9 10 11 12 13 14 15 16 17 18 19 20 21 22 23 24 25 26 27 28 29 30 31 32 33 34 35 36 37 38 39 40 41 42 43 44 45 46 47 48 49 50

000
ASUS43 KIND 242159
RWRIN

WEATHER ROUNDUP FOR INDIANA
NATIONAL WEATHER SERVICE INDIANAPOLIS IN
600 PM EDT MON APR 24 2017

NOTE: "FAIR" INDICATES FEW OR NO CLOUDS BELOW 12,000 FEET WITH NO
SIGNIFICANT WEATHER AND/OR OBSTRUCTIONS TO VISIBILITY.

* - STATION DOES NOT REPORT WEATHER SUCH AS PRECIPITATION OR FOG.

+ - STATION NOT QUALITY CONTROLLED BY THE NATIONAL WEATHER SERVICE.
    USE DATA WITH CAUTION...ESPECIALLY DEWPOINT AND RELATIVE
    HUMIDITY OBSERVATIONS.

INZ001>003-010>013-019-020-242300-
NORTHWEST INDIANA

CITY           SKY/WX    TMP DP  RH WIND       PRES   REMARKS
GARY /AIRPORT/ PTSUNNY   66  32  28 NE9       29.84F
KNOX *+        MOSUNNY  N/A N/A N/A E17       29.83F
MONTICELLO +   SUNNY     73  33  22 E12       29.81F

$$

LMZ046-743>745-242300-
SOUTHERN LAKE MICHIGAN

STATION/POSITION TIME  TEMP    WIND        PRES    WAVE
                       AIR SEA DIR/SP/G            HT
                 (UTC) (F)     (DEG/KT/KT) (MB)    (FT)
BURNS HARBOR     2140   56      70/ 10/ 13 1010.8F
MICHIGAN CITY    2130   60      10/  7/ 10   N/A

$$

INZ004-005-014>016-021>024-242300-
NORTH CENTRAL INDIANA

CITY           SKY/WX    TMP DP  RH WIND       PRES   REMARKS
GOSHEN         CLOUDY    70  37  29 E15       29.86F
SOUTH BEND     CLOUDY    71  33  24 SE18G25   29.86F

$$

INZ006>009-017-018-025>027-242300-
NORTHEAST INDIANA

CITY           SKY/WX    TMP DP  RH WIND       PRES   REMARKS
ANGOLA *+      SUNNY     68  61  77 E16       29.89F
FORT WAYNE     PTSUNNY   70  39  32 NE17      29.86F
KENDALLVILLE + SUNNY     68  33  26 E12G20    29.88F

$$

INZ028-029-035-036-043>045-051>053-242300-
WEST CENTRAL INDIANA

CITY           SKY/WX    TMP DP  RH WIND       PRES   REMARKS
CRAWFORDSVL +  SUNNY     73  38  28 E14       29.79F
LAFAYETTE      SUNNY     71  41  33 E14G24    29.79
TERRE HAUTE    SUNNY     76  37  24 E12       29.77F

$$

INZ030>032-037>040-046>048-054>057-064-065-242300-
CENTRAL INDIANA

CITY           SKY/WX    TMP DP  RH WIND       PRES   REMARKS
CP ATTERBURY + SUNNY     73  50  43 E10       29.79F
INDIANAPOLIS   CLOUDY    75  44  33 E12G21    29.79F
-EAGLE CREEK   CLOUDY    76  38  25 NE13G18   29.79F
KOKOMO +       SUNNY     73  39  29 E20G26    29.82F
SHELBYVILLE    SUNNY     79  46  31 E14       29.78F

$$

INZ033-034-041-042-049-050-058-059-242300-
EAST CENTRAL INDIANA

CITY           SKY/WX    TMP DP  RH WIND       PRES   REMARKS
MUNCIE         SUNNY     77  31  18 NE20      29.81F
RICHMOND +     PTSUNNY   70  50  49 E16G23    29.82F HAZE

$$

INZ060-061-067>069-081>083-085>088-242300-
SOUTHWEST INDIANA

CITY           SKY/WX    TMP DP  RH WIND       PRES   REMARKS
EVANSVILLE     SUNNY     78  44  29 W3        29.76F
HUNTINGBURG *+ SUNNY     75  47  36 N9        29.76F

$$

INZ062-063-066-070>080-084-089>092-242300-
SOUTH CENTRAL AND SOUTHEAST INDIANA

CITY           SKY/WX    TMP DP  RH WIND       PRES   REMARKS
BLOOMINGTON    SUNNY     75  44  33 E7G21     29.77F
MADISON *+     MOSUNNY   73  46  38 E9        29.80S
SEYMOUR +      SUNNY     77  50  38 NE10      29.77F

$$





USA.gov is the U.S. government's official web portal to all federal, state and local government web resources and services.